Погода в Вигане

Филиппины     17°34′26″N   120°23′06″E
темп.,
°C
ветер,
м/с
пор.,
м/с
влажн.,
%
обл.,
%
осадки,
мм/ч
давл.,
гПа
погр.,
м
24 сентября, пт
пт2423:00+24вюв21945 0.4 101323
02:00+24всв22935 0.6 101140
05:00+23в22905 0.0 101221
08:00+26в12772 0.0 1013201
11:00+31зсз12590 0.0 1011869
14:00+29зюз33695 0.0 1009620
17:00+28юз12775 0.1 1009468
20:00+25в22855 0.1 101123
25 сентября, сб
сб2523:00+24всв22875 0.0 101137
02:00+23в22845 0.0 100927
05:00+23в22835 0.0 100927
08:00+26всв227476 0.0 1010183
11:00+30зсз226058 0.0 1010817
14:00+30зсз336596 0.0 1008708
17:00+28зсз117652 0.4 1008311
20:00+25вюв118365 0.6 100919
26 сентября, вс
вс2623:00+24в22875 0.0 100923
02:00+23в22863 0.0 100823
05:00+23всв22865 0.0 100926
08:00+26всв22755 0.0 1010213
11:00+31зсз126049 0.0 1009827
14:00+30з3370100 0.0 1007728
17:00+27з1282100 0.2 100773
20:00+26юв118374 0.2 100935
27 сентября, пн
пн2723:00+24в218956 0.0 100922
02:00+24в229191 0.0 100823
05:00+23всв22885 0.0 100832
08:00+26в127435 0.0 1009204
11:00+30зюз216215 0.0 1008849
14:00+30зюз3369100 0.0 1006799
17:00+28зсз12806 0.4 1007260
20:00+25всв118856 1.2 100820
28 сентября, вт
вт2823:00+24в119164 0.0 100816
02:00+24в11935 0.0 100719
05:00+23в229378 0.0 100724
08:00+26всв2281100 0.0 1009240
11:00+30з21678 0.0 10081044
14:00+30з337080 0.0 1006861
17:00+28з238084 0.4 1006472
20:00+25вюв119091 3.0 100812